Regional Weather Roundup
Issued by NWS

Home | Current Version | Previous Version | Graphics & Text | Print | Product List | Glossary On
Versions: 1 2 3 4 5 6 7 8 9 10 11 12 13 14 15 16 17 18 19 20 21 22 23 24 25 26 27 28 29 30 31 32 33 34 35 36 37 38 39 40 41 42 43 44 45 46 47 48 49 50
000
ASUS43 KFSD 220710
RWRSD

WEATHER ROUNDUP FOR SOUTH DAKOTA
NATIONAL WEATHER SERVICE SIOUX FALLS SD
200 AM CDT MON MAY 22 2017

NOTE: "FAIR" INDICATES FEW OR NO CLOUDS BELOW 12,000 FEET WITH NO
SIGNIFICANT WEATHER AND/OR OBSTRUCTIONS TO VISIBILITY.


SDZ001>005-009-010-012>017-220800-
NORTHWEST AND NORTH CENTRAL SOUTH DAKOTA

CITY           SKY/WX    TMP DP  RH WIND       PRES   REMARKS
BUFFALO          N/A     48  43  82 NW15      29.96F
FAITH            N/A     46  40  79 W14       29.98F
MOBRIDGE       CLEAR     50  42  74 NW5       29.90F
$$

SDZ012>016-024>037-041>051-057-063-072>074-220800-
SOUTHWEST AND SOUTH CENTRAL SOUTH DAKOTA

CITY           SKY/WX    TMP DP  RH WIND       PRES   REMARKS
RAPID CTY ARPT CLEAR     43  37  79 W7        30.06F
PIERRE         CLEAR     49  42  77 W9        29.96F
CUSTER         CLOUDY    39  31  72 W3        30.13F
ELLSWORTH AFB  CLEAR     43  39  85 W9        30.04F
PHILIP         CLEAR     44  42  93 W7        30.01F
PINE RIDGE     CLEAR     42  40  92 SW5       30.11F
SPEARFISH      FAIR      50  37  62 W14       30.08F
WINNER         FAIR      51  44  77 W12       30.00F
$$

SDZ004>011-016>023-039-040-220800-
NORTHEAST SOUTH DAKOTA

CITY           SKY/WX    TMP DP  RH WIND       PRES   REMARKS
ABERDEEN       PTCLDY    42  38  85 CALM      29.90F
WATERTOWN      CLEAR     39  38  96 N5        29.90F
BROOKINGS      CLOUDY    45  41  86 SE8       29.93F
SISSETON         N/A     44  40  85 W7        29.89F
$$

SDZ017-020-022-023-036>040-048>070-220800-
SOUTHEAST SOUTH DAKOTA

CITY           SKY/WX    TMP DP  RH WIND       PRES   REMARKS
SIOUX FALLS    PTCLDY    54  43  66 SW8       29.93F
HURON          CLOUDY    47  44  90 CALM      29.92S
CHAMBERLAIN    CLEAR     53  46  78 W9        29.97F
MITCHELL       CLOUDY    54  43  66 W13       29.94S
YANKTON        PTCLDY    58  42  55 SE15G22   29.97F
$$

ABBREVIATIONS USED IN REMARKS
   TC - TEMPERATURE IN CELSIUS
  WCI - WIND CHILL INDEX
   HX - HEAT INDEX
  VSB - VISIBILITY




USA.gov is the U.S. government's official web portal to all federal, state and local government web resources and services.